DELTA 1 DEB, 7890

Orbit data source: Space-Track

DELTA 1 DEB, 7890 is space debris in SSO originally from a launch on Sun, 23 Jul 1972 UTC launched from the Air Force Western Test Range (AFWTR). Debris objects in space refer to the collection of defunct objects orbiting the Earth. Examples of debris include non-operational satellites, rocket bodies, and fragments generated from explosions, collisions, or faulty payload assembly.

Loading next visibility...
Identifier
7890, 1972-058BG
Orbit
SSO
Country
Flag of USUS
Related business
Manufacturer
Unknown
Mission
Spacecraft
Bus & Motor
Unknown
Mass
Unknown
Launch date (UTC)
1972-07-23 (54 years ago)
Launch vehicle
Unknown
Launch site
Air Force Western Test Range (AFWTR)
Object type
Payload
Rocket body
Debris
Shape & HBR
Unknown shape, 0.2 m
Radar Cross Section
Medium (>0.1 m² and <1 m²)

Expand to show TLE details & history
Last TLE update: 1 week ago

TLE from 1 week ago
0 DELTA 1 DEB
1 07890U 72058BG  26154.68838704  .00013226  00000-0  12500-2 0  9992
2 07890  98.8300 263.6856 0094215  71.0172 290.1223 14.90498978638442
Epoch: 2026-06-03T16:31Z
TLE epoch observation values (Epoch: 2026-06-03T16:31:16.640Z)
Latitude
-0.00002°
Longitude
123.72286°
Altitude
577.323 km
Speed
7.584 km/s
True Right ascension
17h 34m 44s
True Declination
0° 00' 00"
Sunlit
Object was in full shadow at epoch
Visualization orbit readout
Latitude
Unknown
Longitude
Unknown
Altitude
Unknown
Speed
Unknown
Apparent Right ascension
Unknown
Apparent Declination
Unknown
Sunlit
N/A
Visualization observer readout
Local Sidereal Time
00:36:03
Azimuth
Unknown
Elevation
Unknown
Doppler factor
Unknown
Orbital elements
Apogee altitude
659.132 km
Perigee altitude
527.767 km
Semi-major axis
6,971.586 km
Eccentricity
0.00942
Inclination
98.83°
RAAN
263.6856°
Arg. of periapsis
71.0172°
True anomaly
289.10451°
Mean anomaly
290.1223°
Eccentric anomaly
289.61381°
Mean motion
3.7286 °/min
Orbital period
96.55 mins
BSTAR
0.00125
Loading maneuver chart data...
Computing Atmospheric mass density...
Loading historical data...
Loading historical data...
Loading historical data...
Loading historical data...
Loading historical data...
Loading historical data...
Loading historical data...

Documentation

Showing up to 5 results
|